STARLINK-34248

Last updated on Tue Aug 26 2025 00:02:05 GMT+0000 (Coordinated Universal Time)

1 64928U 25157AA 25237.58336806 .00019659 00000+0 50065-3 0 9995 2 64928 53.1604 187.5439 0001085 95.3135 289.3781 15.39592029 6039
UTC large
Height (km)
Speed (km/s)
/
Latitude / Longitude
Inclination (degrees)
Orbital Period (minutes)
Azimuth
Elevation
Range (km)
Doppler Factor

Next 0 passes for location: London (51.5072 / 0.1276)

Sorry there are no passes over London.
STARLINK-34248